Location: Fauquembergues
(50.6005°N, 2.0987°E)
Time: 08:26:12
(UTC+00:00)

COSMOS 2406 - Pass Details

Date: 14 July 2020
Orbit: 844 x 862 km, 71.0° (Epoch: 14 August)

Event Time Altitude Azimuth Distance (km) Brightness Sun altitude
Exits shadow 02:31:39 12° 230° (SW) 2,344 4.9 -10.2°
Maximum altitude 02:36:51 54° 306° (NW) 1,044 3.7 -9.7°
Drops below altitude 10° 02:42:31 10° 24° (NNE) 2,510 7.1 -9.1°
Sets 02:45:03 0° 29° (NNE) 3,448 8.4 -8.9°
